| time (UTC) | temp F | wind direction | speed MPH | gust MPH | rain 1hr in | rain 24hr in | rain mn in | humidity % | barometer mb |
| 20260506151549 | 67 | 98 | 2.0 | 4.0 | 0.00 | 0.02 | 0.00 | 67 | 1018.9 |
| 20260506150056 | 65 | 108 | 3.0 | 6.0 | 0.00 | 0.02 | 0.00 | 69 | 1018.9 |
| 20260506144551 | 63 | 78 | 2.0 | 4.0 | 0.00 | 0.02 | 0.00 | 71 | 1018.8 |
| 20260506143052 | 62 | 74 | 2.0 | 5.0 | 0.00 | 0.02 | 0.00 | 73 | 1018.7 |
| 20260506141554 | 60 | 76 | 3.0 | 7.0 | 0.00 | 0.02 | 0.00 | 74 | 1018.5 |
| 20260506140054 | 59 | 74 | 3.0 | 5.0 | 0.00 | 0.02 | 0.00 | 76 | 1018.5 |
| 20260506134555 | 57 | 53 | 2.0 | 5.0 | 0.00 | 0.02 | 0.00 | 79 | 1018.4 |
| 20260506133055 | 55 | 44 | 3.0 | 5.0 | 0.00 | 0.02 | 0.00 | 80 | 1018.3 |
| 20260506131602 | 54 | 51 | 3.0 | 5.0 | 0.00 | 0.02 | 0.00 | 83 | 1018.2 |
| 20260506130131 | 53 | 49 | 2.0 | 4.0 | 0.00 | 0.02 | 0.00 | 83 | 1018.1 |
| 20260506124559 | 54 | 49 | 3.0 | 5.0 | 0.00 | 0.02 | 0.00 | 83 | 1017.9 |
| 20260506123053 | 54 | 55 | 4.0 | 6.0 | 0.00 | 0.02 | 0.00 | 83 | 1017.9 |
| 20260506121556 | 53 | 49 | 2.0 | 5.0 | 0.00 | 0.02 | 0.00 | 83 | 1017.7 |
| 20260506120056 | 54 | 35 | 2.0 | 4.0 | 0.00 | 0.02 | 0.00 | 83 | 1017.9 |
| 20260506114557 | 54 | 30 | 2.0 | 4.0 | 0.00 | 0.03 | 0.00 | 83 | 1017.8 |
| 20260506113058 | 53 | 31 | 2.0 | 4.0 | 0.00 | 0.03 | 0.00 | 82 | 1017.8 |
| 20260506111607 | 54 | 40 | 2.0 | 5.0 | 0.00 | 0.03 | 0.00 | 83 | 1017.7 |
| 20260506110111 | 54 | 30 | 2.0 | 4.0 | 0.00 | 0.03 | 0.00 | 83 | 1017.8 |
| 20260506104600 | 54 | 38 | 2.0 | 5.0 | 0.00 | 0.03 | 0.00 | 82 | 1017.7 |
| 20260506103110 | 54 | 14 | 2.0 | 4.0 | 0.00 | 0.03 | 0.00 | 83 | 1017.7 |
| 20260506101608 | 54 | 17 | 3.0 | 5.0 | 0.00 | 0.03 | 0.00 | 82 | 1017.5 |
| 20260506100121 | 55 | 5 | 2.0 | 4.0 | 0.00 | 0.03 | 0.00 | 82 | 1017.5 |
| 20260506094553 | 55 | 5 | 1.0 | 4.0 | 0.00 | 0.03 | 0.00 | 81 | 1017.6 |
| 20260506093053 | 56 | 346 | 2.0 | 3.0 | 0.00 | 0.03 | 0.00 | 80 | 1017.5 |
| 20260506091604 | 56 | 346 | 1.0 | 3.0 | 0.00 | 0.03 | 0.00 | 81 | 1017.5 |
| 20260506090108 | 56 | 0 | 0.0 | 2.0 | 0.00 | 0.03 | 0.00 | 80 | 1017.7 |
| 20260506084620 | 56 | 346 | 0.0 | 1.0 | 0.00 | 0.03 | 0.00 | 80 | 1017.9 |
| 20260506083055 | 56 | 346 | 0.0 | 2.0 | 0.00 | 0.03 | 0.00 | 80 | 1018.0 |
| 20260506081554 | 57 | 346 | 1.0 | 4.0 | 0.00 | 0.03 | 0.00 | 80 | 1018.0 |
| 20260506073054 | 58 | 242 | 1.0 | 2.0 | 0.00 | 0.03 | 0.00 | 80 | 1018.3 |
| 20260506071559 | 57 | 0 | 0.0 | 2.0 | 0.00 | 0.03 | 0.00 | 80 | 1018.4 |
| 20260506061550 | 57 | 0 | 0.0 | 1.0 | 0.00 | 0.03 | 0.03 | 80 | 1018.1 |
| 20260506044653 | 59 | 0 | 0.0 | 3.0 | 0.00 | 0.03 | 0.03 | 77 | 1017.6 |
| 20260506043050 | 59 | 250 | 2.0 | 5.0 | 0.00 | 0.03 | 0.03 | 77 | 1017.5 |
| 20260506041601 | 59 | 240 | 1.0 | 5.0 | 0.00 | 0.03 | 0.03 | 77 | 1017.3 |
| 20260506040054 | 59 | 254 | 2.0 | 7.0 | 0.00 | 0.03 | 0.03 | 76 | 1017.2 |
| 20260506034623 | 59 | 254 | 3.0 | 7.0 | 0.00 | 0.03 | 0.03 | 77 | 1016.9 |
| 20260506033101 | 60 | 265 | 3.0 | 7.0 | 0.00 | 0.03 | 0.03 | 76 | 1016.6 |
| 20260506031550 | 59 | 252 | 1.0 | 7.0 | 0.00 | 0.03 | 0.03 | 76 | 1016.5 |
| 20260506030057 | 60 | 253 | 4.0 | 11.0 | 0.00 | 0.03 | 0.03 | 75 | 1016.3 |
| 20260506024554 | 60 | 257 | 3.0 | 7.0 | 0.00 | 0.03 | 0.03 | 75 | 1016.1 |
| 20260506023108 | 60 | 244 | 3.0 | 8.0 | 0.00 | 0.03 | 0.03 | 74 | 1016.0 |
| 20260506021553 | 60 | 239 | 4.0 | 8.0 | 0.00 | 0.03 | 0.03 | 73 | 1015.7 |
| 20260506020054 | 61 | 241 | 2.0 | 10.0 | 0.00 | 0.03 | 0.03 | 72 | 1015.5 |
| 20260506014551 | 62 | 249 | 5.0 | 10.0 | 0.00 | 0.03 | 0.03 | 70 | 1015.4 |
| 20260506013052 | 63 | 261 | 7.0 | 14.0 | 0.00 | 0.03 | 0.03 | 68 | 1015.4 |
| 20260506011610 | 64 | 254 | 8.0 | 14.0 | 0.00 | 0.03 | 0.03 | 67 | 1015.1 |
| 20260506004625 | 64 | 267 | 8.0 | 17.0 | 0.00 | 0.03 | 0.03 | 66 | 1015.2 |
| 20260506003113 | 65 | 259 | 6.0 | 13.0 | 0.00 | 0.03 | 0.03 | 64 | 1015.2 |
| 20260506001557 | 64 | 263 | 7.0 | 14.0 | 0.00 | 0.03 | 0.03 | 66 | 1015.2 |
| 20260506000051 | 65 | 282 | 8.0 | 16.0 | 0.00 | 0.03 | 0.03 | 67 | 1015.1 |
| 20260505234617 | 65 | 360 | 9.0 | 17.0 | 0.00 | 0.03 | 0.03 | 64 | 1015.1 |
| 20260505233050 | 65 | 273 | 9.0 | 17.0 | 0.00 | 0.03 | 0.03 | 61 | 1015.2 |
| 20260505231551 | 65 | 269 | 8.0 | 18.0 | 0.01 | 0.03 | 0.03 | 64 | 1015.1 |
| 20260505230050 | 65 | 248 | 12.0 | 18.0 | 0.01 | 0.03 | 0.03 | 65 | 1015.2 |
| 20260505224551 | 65 | 263 | 10.0 | 19.0 | 0.01 | 0.03 | 0.03 | 63 | 1015.3 |
| 20260505223053 | 66 | 215 | 10.0 | 20.0 | 0.01 | 0.03 | 0.03 | 63 | 1015.5 |
| 20260505221551 | 66 | 268 | 7.0 | 16.0 | 0.00 | 0.02 | 0.02 | 62 | 1015.5 |
| 20260505220103 | 66 | 257 | 9.0 | 18.0 | 0.00 | 0.02 | 0.02 | 63 | 1015.7 |
| 20260505214602 | 67 | 231 | 8.0 | 16.0 | 0.00 | 0.02 | 0.02 | 63 | 1015.8 |
| 20260505213102 | 65 | 227 | 10.0 | 15.0 | 0.00 | 0.02 | 0.02 | 62 | 1015.9 |
| 20260505211557 | 66 | 284 | 9.0 | 18.0 | 0.00 | 0.02 | 0.02 | 61 | 1015.9 |
| 20260505210048 | 66 | 215 | 9.0 | 17.0 | 0.00 | 0.02 | 0.02 | 62 | 1016.1 |
| 20260505204549 | 66 | 234 | 9.0 | 19.0 | 0.00 | 0.02 | 0.02 | 62 | 1016.1 |
| 20260505203056 | 65 | 246 | 10.0 | 19.0 | 0.00 | 0.02 | 0.02 | 64 | 1016.2 |
| 20260505201549 | 66 | 277 | 8.0 | 18.0 | 0.00 | 0.02 | 0.02 | 64 | 1016.2 |
| 20260505200054 | 65 | 238 | 10.0 | 17.0 | 0.00 | 0.02 | 0.02 | 67 | 1016.2 |
| 20260505194556 | 65 | 225 | 8.0 | 16.0 | 0.00 | 0.02 | 0.02 | 69 | 1016.2 |
| 20260505193057 | 66 | 234 | 7.0 | 14.0 | 0.00 | 0.02 | 0.02 | 66 | 1016.2 |
| 20260505191559 | 65 | 225 | 9.0 | 17.0 | 0.00 | 0.02 | 0.02 | 66 | 1016.4 |
| 20260505190053 | 65 | 261 | 6.0 | 14.0 | 0.00 | 0.02 | 0.02 | 65 | 1016.4 |
| 20260505184602 | 65 | 240 | 7.0 | 13.0 | 0.00 | 0.02 | 0.02 | 65 | 1016.4 |
| 20260505183057 | 65 | 274 | 8.0 | 15.0 | 0.00 | 0.02 | 0.02 | 62 | 1016.4 |
| 20260505181554 | 64 | 257 | 6.0 | 16.0 | 0.00 | 0.02 | 0.02 | 70 | 1016.5 |
| 20260505174611 | 64 | 360 | 6.0 | 12.0 | 0.00 | 0.02 | 0.02 | 71 | 1016.1 |
| 20260505173052 | 63 | 262 | 6.0 | 12.0 | 0.00 | 0.02 | 0.02 | 68 | 1016.0 |
| 20260505171551 | 63 | 272 | 5.0 | 11.0 | 0.01 | 0.02 | 0.02 | 71 | 1015.9 |
| 20260505170136 | 62 | 237 | 4.0 | 13.0 | 0.01 | 0.02 | 0.02 | 73 | 1015.7 |
| 20260505164552 | 61 | 227 | 6.0 | 11.0 | 0.01 | 0.02 | 0.02 | 75 | 1015.6 |
| 20260505163055 | 61 | 360 | 3.0 | 10.0 | 0.01 | 0.02 | 0.02 | 76 | 1015.5 |
| 20260505161601 | 61 | 250 | 3.0 | 9.0 | 0.00 | 0.01 | 0.01 | 78 | 1015.3 |
| 20260505153059 | 59 | 290 | 3.0 | 7.0 | 0.00 | 0.01 | 0.01 | 84 | 1015.2 |